Year,Month,Day,Hour,Minute,Value (Times are PST for temperature in C)
2006,08,07,00,00,15.40
2006,08,07,00,01,15.40
2006,08,07,00,02,15.40
2006,08,07,00,03,15.40
2006,08,07,00,04,15.40
2006,08,07,00,05,15.40
2006,08,07,00,06,15.40
2006,08,07,00,07,15.50
2006,08,07,00,08,15.50
2006,08,07,00,09,15.50
2006,08,07,00,10,15.50
2006,08,07,00,11,15.40
2006,08,07,00,12,15.40
2006,08,07,00,13,15.40
2006,08,07,00,14,15.40
2006,08,07,00,15,15.40
2006,08,07,00,16,15.40
2006,08,07,00,17,15.30
2006,08,07,00,18,15.30
2006,08,07,00,19,15.30
2006,08,07,00,20,15.30
2006,08,07,00,21,15.30
2006,08,07,00,22,15.30
2006,08,07,00,23,15.30
2006,08,07,00,24,15.30
2006,08,07,00,25,15.30
2006,08,07,00,26,15.30
2006,08,07,00,27,15.30
2006,08,07,00,28,15.30
2006,08,07,00,29,15.30
2006,08,07,00,30,15.30
2006,08,07,00,31,15.30
2006,08,07,00,32,15.30
2006,08,07,00,33,15.30
2006,08,07,00,34,15.30
2006,08,07,00,35,15.30
2006,08,07,00,36,15.30
2006,08,07,00,37,15.30
2006,08,07,00,38,15.30
2006,08,07,00,39,15.30
2006,08,07,00,40,15.30
2006,08,07,00,41,15.30
2006,08,07,00,42,15.30
2006,08,07,00,43,15.30
2006,08,07,00,44,15.30
2006,08,07,00,45,15.30
2006,08,07,00,46,15.30
2006,08,07,00,47,15.30
2006,08,07,00,48,15.30
2006,08,07,00,49,15.30
2006,08,07,00,50,15.30
2006,08,07,00,51,15.30
2006,08,07,00,52,15.30
2006,08,07,00,53,15.30
2006,08,07,00,54,15.30
2006,08,07,00,55,15.30
2006,08,07,00,56,15.20
2006,08,07,00,57,15.20
2006,08,07,00,58,15.10
2006,08,07,00,59,15.10
2006,08,07,01,00,15.10
2006,08,07,01,01,15.00
2006,08,07,01,02,15.00
2006,08,07,01,03,15.00
2006,08,07,01,04,14.90
2006,08,07,01,05,14.90
2006,08,07,01,06,14.90
2006,08,07,01,07,14.80
2006,08,07,01,08,14.80
2006,08,07,01,09,14.80
2006,08,07,01,10,14.80
2006,08,07,01,11,14.80
2006,08,07,01,12,14.80
2006,08,07,01,13,14.70
2006,08,07,01,14,14.70
2006,08,07,01,15,14.70
2006,08,07,01,16,14.70
2006,08,07,01,17,14.60
2006,08,07,01,18,14.60
2006,08,07,01,19,14.60
2006,08,07,01,20,14.60
2006,08,07,01,21,14.60
2006,08,07,01,22,14.60
2006,08,07,01,23,14.60
2006,08,07,01,24,14.60
2006,08,07,01,25,14.50
2006,08,07,01,26,14.50
2006,08,07,01,27,14.50
2006,08,07,01,28,14.50
2006,08,07,01,29,14.50
2006,08,07,01,30,14.50
2006,08,07,01,31,14.50
2006,08,07,01,32,14.40
2006,08,07,01,33,14.40
2006,08,07,01,34,14.40
2006,08,07,01,35,14.40
2006,08,07,01,36,14.40
2006,08,07,01,37,14.40
2006,08,07,01,38,14.40
2006,08,07,01,39,14.40
2006,08,07,01,40,14.40
2006,08,07,01,41,14.40
2006,08,07,01,42,14.30
2006,08,07,01,43,14.30
2006,08,07,01,44,14.30
2006,08,07,01,45,14.30
2006,08,07,01,46,14.30
2006,08,07,01,47,14.20
2006,08,07,01,48,14.20
2006,08,07,01,49,14.20
2006,08,07,01,50,14.20
2006,08,07,01,51,14.20
2006,08,07,01,52,14.20
2006,08,07,01,53,14.20
2006,08,07,01,54,14.20
2006,08,07,01,55,14.20
2006,08,07,01,56,14.20
2006,08,07,01,57,14.20
2006,08,07,01,58,14.20
2006,08,07,01,59,14.20
2006,08,07,02,00,14.20
2006,08,07,02,01,14.20
2006,08,07,02,02,14.20
2006,08,07,02,03,14.20
2006,08,07,02,04,14.20
2006,08,07,02,05,14.20
2006,08,07,02,06,14.20
2006,08,07,02,07,14.20
2006,08,07,02,08,14.20
2006,08,07,02,09,14.20
2006,08,07,02,10,14.20
2006,08,07,02,11,14.10
2006,08,07,02,12,14.10
2006,08,07,02,13,14.10
2006,08,07,02,14,14.10
2006,08,07,02,15,14.10
2006,08,07,02,16,14.10
2006,08,07,02,17,14.00
2006,08,07,02,18,14.00
2006,08,07,02,19,14.00
2006,08,07,02,20,14.00
2006,08,07,02,21,13.90
2006,08,07,02,22,13.90
2006,08,07,02,23,13.90
2006,08,07,02,24,13.90
2006,08,07,02,25,13.80
2006,08,07,02,26,13.80
2006,08,07,02,27,13.80
2006,08,07,02,28,13.80
2006,08,07,02,29,13.70
2006,08,07,02,30,13.70
2006,08,07,02,31,13.70
2006,08,07,02,32,13.70
2006,08,07,02,33,13.70
2006,08,07,02,34,13.70
2006,08,07,02,35,13.70
2006,08,07,02,36,13.70
2006,08,07,02,37,13.70
2006,08,07,02,38,13.70
2006,08,07,02,39,13.70
2006,08,07,02,40,13.70
2006,08,07,02,41,13.70
2006,08,07,02,42,13.60
2006,08,07,02,43,13.60
2006,08,07,02,44,13.60
2006,08,07,02,45,13.60
2006,08,07,02,46,13.60
2006,08,07,02,47,13.60
2006,08,07,02,48,13.60
2006,08,07,02,49,13.60
2006,08,07,02,50,13.60
2006,08,07,02,51,13.60
2006,08,07,02,52,13.50
2006,08,07,02,53,13.50
2006,08,07,02,54,13.50
2006,08,07,02,55,13.50
2006,08,07,02,56,13.50
2006,08,07,02,57,13.50
2006,08,07,02,58,13.50
2006,08,07,02,59,13.50
2006,08,07,03,00,13.50
2006,08,07,03,01,13.40
2006,08,07,03,02,13.40
2006,08,07,03,03,13.40
2006,08,07,03,04,13.40
2006,08,07,03,05,13.40
2006,08,07,03,06,13.40
2006,08,07,03,07,13.40
2006,08,07,03,08,13.40
2006,08,07,03,09,13.40
2006,08,07,03,10,13.40
2006,08,07,03,11,13.30
2006,08,07,03,12,13.30
2006,08,07,03,13,13.30
2006,08,07,03,14,13.30
2006,08,07,03,15,13.30
2006,08,07,03,16,13.30
2006,08,07,03,17,13.30
2006,08,07,03,18,13.30
2006,08,07,03,19,13.30
2006,08,07,03,20,13.30
2006,08,07,03,21,13.30
2006,08,07,03,22,13.30
2006,08,07,03,23,13.30
2006,08,07,03,24,13.30
2006,08,07,03,25,13.30
2006,08,07,03,26,13.30
2006,08,07,03,27,13.30
2006,08,07,03,28,13.30
2006,08,07,03,29,13.30
2006,08,07,03,30,13.30
2006,08,07,03,31,13.30
2006,08,07,03,32,13.30
2006,08,07,03,33,13.30
2006,08,07,03,34,13.30
2006,08,07,03,35,13.30
2006,08,07,03,36,13.30
2006,08,07,03,37,13.30
2006,08,07,03,38,13.30
2006,08,07,03,39,13.30
2006,08,07,03,40,13.30
2006,08,07,03,41,13.30
2006,08,07,03,42,13.30
2006,08,07,03,43,13.30
2006,08,07,03,44,13.30
2006,08,07,03,45,13.30
2006,08,07,03,46,13.20
2006,08,07,03,47,13.20
2006,08,07,03,48,13.20
2006,08,07,03,49,13.20
2006,08,07,03,50,13.20
2006,08,07,03,51,13.20
2006,08,07,03,52,13.10
2006,08,07,03,53,13.10
2006,08,07,03,54,13.10
2006,08,07,03,55,13.10
2006,08,07,03,56,13.10
2006,08,07,03,57,13.00
2006,08,07,03,58,13.00
2006,08,07,03,59,13.00
2006,08,07,04,00,13.00
2006,08,07,04,01,13.00
2006,08,07,04,02,13.00
2006,08,07,04,03,12.90
2006,08,07,04,04,12.90
2006,08,07,04,05,12.90
2006,08,07,04,06,12.90
2006,08,07,04,07,12.90
2006,08,07,04,08,12.90
2006,08,07,04,09,12.90
2006,08,07,04,10,12.80
2006,08,07,04,11,12.80
2006,08,07,04,12,12.80
2006,08,07,04,13,12.80
2006,08,07,04,14,12.80
2006,08,07,04,15,12.80
2006,08,07,04,16,12.80
2006,08,07,04,17,12.80
2006,08,07,04,18,12.80
2006,08,07,04,19,12.80
2006,08,07,04,20,12.80
2006,08,07,04,21,12.80
2006,08,07,04,22,12.80
2006,08,07,04,23,12.80
2006,08,07,04,24,12.80
2006,08,07,04,25,12.80
2006,08,07,04,26,12.80
2006,08,07,04,27,12.80
2006,08,07,04,28,12.80
2006,08,07,04,29,12.80
2006,08,07,04,30,12.80
2006,08,07,04,31,12.80
2006,08,07,04,32,12.80
2006,08,07,04,33,12.80
2006,08,07,04,34,12.80
2006,08,07,04,35,12.80
2006,08,07,04,36,12.80
2006,08,07,04,37,12.80
2006,08,07,04,38,12.80
2006,08,07,04,39,12.80
2006,08,07,04,40,12.80
2006,08,07,04,41,12.80
2006,08,07,04,42,12.80
2006,08,07,04,43,12.70
2006,08,07,04,44,12.70
2006,08,07,04,45,12.70
2006,08,07,04,46,12.70
2006,08,07,04,47,12.70
2006,08,07,04,48,12.70
2006,08,07,04,49,12.70
2006,08,07,04,50,12.70
2006,08,07,04,51,12.60
2006,08,07,04,52,12.60
2006,08,07,04,53,12.60
2006,08,07,04,54,12.60
2006,08,07,04,55,12.60
2006,08,07,04,56,12.60
2006,08,07,04,57,12.60
2006,08,07,04,58,12.60
2006,08,07,04,59,12.60
2006,08,07,05,00,12.50
2006,08,07,05,01,12.50
2006,08,07,05,02,12.50
2006,08,07,05,03,12.50
2006,08,07,05,04,12.50
2006,08,07,05,05,12.50
2006,08,07,05,06,12.50
2006,08,07,05,07,12.50
2006,08,07,05,08,12.50
2006,08,07,05,09,12.50
2006,08,07,05,10,12.50
2006,08,07,05,11,12.50
2006,08,07,05,12,12.50
2006,08,07,05,13,12.50
2006,08,07,05,14,12.40
2006,08,07,05,15,12.40
2006,08,07,05,16,12.40
2006,08,07,05,17,12.40
2006,08,07,05,18,12.40
2006,08,07,05,19,12.40
2006,08,07,05,20,12.40
2006,08,07,05,21,12.40
2006,08,07,05,22,12.40
2006,08,07,05,23,12.40
2006,08,07,05,24,12.30
2006,08,07,05,25,12.30
2006,08,07,05,26,12.30
2006,08,07,05,27,12.30
2006,08,07,05,28,12.30
2006,08,07,05,29,12.30
2006,08,07,05,30,12.30
2006,08,07,05,31,12.30
2006,08,07,05,32,12.30
2006,08,07,05,33,12.30
2006,08,07,05,34,12.30
2006,08,07,05,35,12.30
2006,08,07,05,36,12.30
2006,08,07,05,37,12.30
2006,08,07,05,38,12.30
2006,08,07,05,39,12.30
2006,08,07,05,40,12.30
2006,08,07,05,41,12.30
2006,08,07,05,42,12.30
2006,08,07,05,43,12.30
2006,08,07,05,44,12.30
2006,08,07,05,45,12.30
2006,08,07,05,46,12.30
2006,08,07,05,47,12.30
2006,08,07,05,48,12.30
2006,08,07,05,49,12.30
2006,08,07,05,50,12.30
2006,08,07,05,51,12.30
2006,08,07,05,52,12.30
2006,08,07,05,53,12.30
2006,08,07,05,54,12.30
2006,08,07,05,55,12.30
2006,08,07,05,56,12.30
2006,08,07,05,57,12.30
2006,08,07,05,58,12.20
2006,08,07,05,59,12.20
2006,08,07,06,00,12.20
2006,08,07,06,01,12.20
2006,08,07,06,02,12.20
2006,08,07,06,03,12.20
2006,08,07,06,04,12.20
2006,08,07,06,05,12.20
2006,08,07,06,06,12.20
2006,08,07,06,07,12.10
2006,08,07,06,08,12.10
2006,08,07,06,09,12.10
2006,08,07,06,10,12.10
2006,08,07,06,11,12.10
2006,08,07,06,12,12.10
2006,08,07,06,13,12.10
2006,08,07,06,14,12.10
2006,08,07,06,15,12.10
2006,08,07,06,16,12.10
2006,08,07,06,17,12.10
2006,08,07,06,18,12.10
2006,08,07,06,19,12.10
2006,08,07,06,20,12.10
2006,08,07,06,21,12.10
2006,08,07,06,22,12.10
2006,08,07,06,23,12.10
2006,08,07,06,24,12.10
2006,08,07,06,25,12.10
2006,08,07,06,26,12.10
2006,08,07,06,27,12.10
2006,08,07,06,28,12.10
2006,08,07,06,29,12.10
2006,08,07,06,30,12.10
2006,08,07,06,31,12.10
2006,08,07,06,32,12.10
2006,08,07,06,33,12.10
2006,08,07,06,34,12.10
2006,08,07,06,35,12.10
2006,08,07,06,36,12.10
2006,08,07,06,37,12.10
2006,08,07,06,38,12.10
2006,08,07,06,39,12.10
2006,08,07,06,40,12.10
2006,08,07,06,41,12.10
2006,08,07,06,42,12.10
2006,08,07,06,43,12.10
2006,08,07,06,44,12.10
2006,08,07,06,45,12.10
2006,08,07,06,46,12.10
2006,08,07,06,47,12.10
2006,08,07,06,48,12.10
2006,08,07,06,49,12.10
2006,08,07,06,50,12.10
2006,08,07,06,51,12.10
2006,08,07,06,52,12.20
2006,08,07,06,53,12.20
2006,08,07,06,54,12.20
2006,08,07,06,55,12.20
2006,08,07,06,56,12.30
2006,08,07,06,57,12.30
2006,08,07,06,58,12.30
2006,08,07,06,59,12.30
2006,08,07,07,00,12.30
2006,08,07,07,01,12.30
2006,08,07,07,02,12.30
2006,08,07,07,03,12.40
2006,08,07,07,04,12.50
2006,08,07,07,05,12.50
2006,08,07,07,06,12.70
2006,08,07,07,07,12.70
2006,08,07,07,08,12.80
2006,08,07,07,09,12.90
2006,08,07,07,10,13.00
2006,08,07,07,11,13.00
2006,08,07,07,12,13.10
2006,08,07,07,13,13.10
2006,08,07,07,14,13.20
2006,08,07,07,15,13.20
2006,08,07,07,16,13.30
2006,08,07,07,17,13.30
2006,08,07,07,18,13.30
2006,08,07,07,19,13.30
2006,08,07,07,20,13.40
2006,08,07,07,21,13.40
2006,08,07,07,22,13.50
2006,08,07,07,23,13.50
2006,08,07,07,24,13.50
2006,08,07,07,25,13.50
2006,08,07,07,26,13.50
2006,08,07,07,27,13.50
2006,08,07,07,28,13.40
2006,08,07,07,29,13.40
2006,08,07,07,30,13.50
2006,08,07,07,31,13.50
2006,08,07,07,32,13.50
2006,08,07,07,33,13.50
2006,08,07,07,34,13.50
2006,08,07,07,35,13.60
2006,08,07,07,36,13.70
2006,08,07,07,37,13.70
2006,08,07,07,38,13.70
2006,08,07,07,39,13.70
2006,08,07,07,40,13.70
2006,08,07,07,41,13.70
2006,08,07,07,42,13.70
2006,08,07,07,43,13.70
2006,08,07,07,44,13.80
2006,08,07,07,45,13.80
2006,08,07,07,46,13.80
2006,08,07,07,47,13.80
2006,08,07,07,48,13.80
2006,08,07,07,49,13.80
2006,08,07,07,50,13.90
2006,08,07,07,51,13.90
2006,08,07,07,52,13.90
2006,08,07,07,53,13.90
2006,08,07,07,54,13.90
2006,08,07,07,55,13.90
2006,08,07,07,56,13.80
2006,08,07,07,57,13.80
2006,08,07,07,58,13.80
2006,08,07,07,59,13.70
2006,08,07,08,00,13.70
2006,08,07,08,01,13.70
2006,08,07,08,02,13.70
2006,08,07,08,03,13.80
2006,08,07,08,04,13.80
2006,08,07,08,05,13.90
2006,08,07,08,06,13.90
2006,08,07,08,07,14.00
2006,08,07,08,08,14.00
2006,08,07,08,09,14.10
2006,08,07,08,10,14.20
2006,08,07,08,11,14.20
2006,08,07,08,12,14.30
2006,08,07,08,13,14.50
2006,08,07,08,14,14.60
2006,08,07,08,15,14.70
2006,08,07,08,16,14.80
2006,08,07,08,17,14.90
2006,08,07,08,18,14.90
2006,08,07,08,19,15.00
2006,08,07,08,20,15.10
2006,08,07,08,21,15.20
2006,08,07,08,22,15.30
2006,08,07,08,23,15.30
2006,08,07,08,24,15.40
2006,08,07,08,25,15.50
2006,08,07,08,26,15.50
2006,08,07,08,27,15.50
2006,08,07,08,28,15.50
2006,08,07,08,29,15.60
2006,08,07,08,30,15.60
2006,08,07,08,31,15.60
2006,08,07,08,32,15.60
2006,08,07,08,33,15.70
2006,08,07,08,34,15.70
2006,08,07,08,35,15.60
2006,08,07,08,36,15.60
2006,08,07,08,37,15.60
2006,08,07,08,38,15.70
2006,08,07,08,39,15.60
2006,08,07,08,40,15.60
2006,08,07,08,41,15.70
2006,08,07,08,42,15.80
2006,08,07,08,43,15.90
2006,08,07,08,44,16.00
2006,08,07,08,45,16.10
2006,08,07,08,46,16.10
2006,08,07,08,47,16.00
2006,08,07,08,48,15.80
2006,08,07,08,49,15.80
2006,08,07,08,50,15.80
2006,08,07,08,51,15.80
2006,08,07,08,52,15.80
2006,08,07,08,53,15.60
2006,08,07,08,54,15.50
2006,08,07,08,55,15.40
2006,08,07,08,56,15.30
2006,08,07,08,57,15.20
2006,08,07,08,58,15.20
2006,08,07,08,59,15.10
2006,08,07,09,00,15.20
2006,08,07,09,01,15.30
2006,08,07,09,02,15.30
2006,08,07,09,03,15.40
2006,08,07,09,04,15.40
2006,08,07,09,05,15.50
2006,08,07,09,06,15.60
2006,08,07,09,07,15.70
2006,08,07,09,08,15.80
2006,08,07,09,09,15.90
2006,08,07,09,10,16.00
2006,08,07,09,11,16.10
2006,08,07,09,12,16.10
2006,08,07,09,13,16.10
2006,08,07,09,14,16.10
2006,08,07,09,15,16.10
2006,08,07,09,16,16.10
2006,08,07,09,17,16.10
2006,08,07,09,18,16.10
2006,08,07,09,19,16.10
2006,08,07,09,20,16.00
2006,08,07,09,21,15.90
2006,08,07,09,22,15.90
2006,08,07,09,23,16.00
2006,08,07,09,24,16.10
2006,08,07,09,25,16.10
2006,08,07,09,26,16.20
2006,08,07,09,27,16.30
2006,08,07,09,28,16.50
2006,08,07,09,29,16.60
2006,08,07,09,30,16.70
2006,08,07,09,31,16.70
2006,08,07,09,32,16.70
2006,08,07,09,33,16.70
2006,08,07,09,34,16.70
2006,08,07,09,35,16.70
2006,08,07,09,36,16.70
2006,08,07,09,37,16.80
2006,08,07,09,38,16.80
2006,08,07,09,39,16.80
2006,08,07,09,40,16.90
2006,08,07,09,41,16.90
2006,08,07,09,42,16.90
2006,08,07,09,43,16.80
2006,08,07,09,44,16.70
2006,08,07,09,45,16.60
2006,08,07,09,46,16.50
2006,08,07,09,47,16.40
2006,08,07,09,48,16.40
2006,08,07,09,49,16.20
2006,08,07,09,50,16.20
2006,08,07,09,51,16.20
2006,08,07,09,52,16.40
2006,08,07,09,53,16.50
2006,08,07,09,54,16.40
2006,08,07,09,55,16.40
2006,08,07,09,56,16.50
2006,08,07,09,57,16.60
2006,08,07,09,58,16.70
2006,08,07,09,59,16.80
2006,08,07,10,00,16.90
2006,08,07,10,01,17.00
2006,08,07,10,02,16.90
2006,08,07,10,03,16.70
2006,08,07,10,04,16.60
2006,08,07,10,05,16.40
2006,08,07,10,06,16.30
2006,08,07,10,07,16.20
2006,08,07,10,08,16.20
2006,08,07,10,09,16.20
2006,08,07,10,10,16.10
2006,08,07,10,11,16.20
2006,08,07,10,12,16.10
2006,08,07,10,13,16.10
2006,08,07,10,14,16.20
2006,08,07,10,15,16.20
2006,08,07,10,16,16.30
2006,08,07,10,17,16.40
2006,08,07,10,18,16.50
2006,08,07,10,19,16.70
2006,08,07,10,20,16.80
2006,08,07,10,21,16.80
2006,08,07,10,22,16.80
2006,08,07,10,23,16.80
2006,08,07,10,24,16.80
2006,08,07,10,25,16.80
2006,08,07,10,26,16.70
2006,08,07,10,27,16.70
2006,08,07,10,28,16.70
2006,08,07,10,29,16.70
2006,08,07,10,30,16.80
2006,08,07,10,31,16.90
2006,08,07,10,32,17.00
2006,08,07,10,33,17.10
2006,08,07,10,34,17.20
2006,08,07,10,35,17.50
2006,08,07,10,36,17.50
2006,08,07,10,37,17.30
2006,08,07,10,38,17.10
2006,08,07,10,39,16.90
2006,08,07,10,40,16.80
2006,08,07,10,41,16.70
2006,08,07,10,42,16.70
2006,08,07,10,43,16.70
2006,08,07,10,44,16.70
2006,08,07,10,45,16.60
2006,08,07,10,46,16.60
2006,08,07,10,47,16.70
2006,08,07,10,48,16.70
2006,08,07,10,49,16.80
2006,08,07,10,50,16.80
2006,08,07,10,51,16.80
2006,08,07,10,52,17.00
2006,08,07,10,53,17.00
2006,08,07,10,54,17.00
2006,08,07,10,55,17.00
2006,08,07,10,56,17.00
2006,08,07,10,57,17.00
2006,08,07,10,58,17.00
2006,08,07,10,59,17.00
2006,08,07,11,00,17.10
2006,08,07,11,01,17.30
2006,08,07,11,02,17.50
2006,08,07,11,03,17.50
2006,08,07,11,04,17.50
2006,08,07,11,05,17.50
2006,08,07,11,06,17.50
2006,08,07,11,07,17.40
2006,08,07,11,08,17.30
2006,08,07,11,09,17.30
2006,08,07,11,10,17.50
2006,08,07,11,11,17.60
2006,08,07,11,12,17.60
2006,08,07,11,13,17.60
2006,08,07,11,14,17.50
2006,08,07,11,15,17.50
2006,08,07,11,16,17.50
2006,08,07,11,17,17.50
2006,08,07,11,18,17.40
2006,08,07,11,19,17.50
2006,08,07,11,20,17.60
2006,08,07,11,21,17.60
2006,08,07,11,22,17.70
2006,08,07,11,23,17.70
2006,08,07,11,24,17.60
2006,08,07,11,25,17.70
2006,08,07,11,26,17.70
2006,08,07,11,27,17.70
2006,08,07,11,28,17.70
2006,08,07,11,29,17.70
2006,08,07,11,30,17.70
2006,08,07,11,31,17.70
2006,08,07,11,32,17.80
2006,08,07,11,33,17.90
2006,08,07,11,34,18.10
2006,08,07,11,35,17.90
2006,08,07,11,36,18.00
2006,08,07,11,37,18.20
2006,08,07,11,38,18.30
2006,08,07,11,39,18.30
2006,08,07,11,40,18.20
2006,08,07,11,41,18.20
2006,08,07,11,42,18.20
2006,08,07,11,43,18.20
2006,08,07,11,44,18.20
2006,08,07,11,45,18.20
2006,08,07,11,46,18.10
2006,08,07,11,47,18.10
2006,08,07,11,48,18.10
2006,08,07,11,49,18.10
2006,08,07,11,50,18.20
2006,08,07,11,51,18.30
2006,08,07,11,52,18.50
2006,08,07,11,53,18.50
2006,08,07,11,54,18.50
2006,08,07,11,55,18.40
2006,08,07,11,56,18.40
2006,08,07,11,57,18.30
2006,08,07,11,58,18.20
2006,08,07,11,59,18.20
2006,08,07,12,00,18.40
2006,08,07,12,01,18.50
2006,08,07,12,02,18.50
2006,08,07,12,03,18.40
2006,08,07,12,04,18.60
2006,08,07,12,05,18.60
2006,08,07,12,06,18.50
2006,08,07,12,07,18.50
2006,08,07,12,08,18.50
2006,08,07,12,09,18.60
2006,08,07,12,10,18.60
2006,08,07,12,11,18.70
2006,08,07,12,12,18.70
2006,08,07,12,13,18.60
2006,08,07,12,14,18.50
2006,08,07,12,15,18.50
2006,08,07,12,16,18.60
2006,08,07,12,17,18.60
2006,08,07,12,18,18.60
2006,08,07,12,19,18.40
2006,08,07,12,20,18.20
2006,08,07,12,21,17.90
2006,08,07,12,22,17.70
2006,08,07,12,23,17.70
2006,08,07,12,24,17.80
2006,08,07,12,25,17.80
2006,08,07,12,26,17.90
2006,08,07,12,27,17.90
2006,08,07,12,28,17.90
2006,08,07,12,29,17.90
2006,08,07,12,30,17.90
2006,08,07,12,31,17.90
2006,08,07,12,32,17.90
2006,08,07,12,33,17.90
2006,08,07,12,34,17.90
2006,08,07,12,35,17.70
2006,08,07,12,36,17.70
2006,08,07,12,37,17.80
2006,08,07,12,38,17.80
2006,08,07,12,39,17.90
2006,08,07,12,40,18.10
2006,08,07,12,41,18.20
2006,08,07,12,42,18.20
2006,08,07,12,43,18.40
2006,08,07,12,44,18.40
2006,08,07,12,45,18.20
2006,08,07,12,46,18.20
2006,08,07,12,47,18.20
2006,08,07,12,48,18.20
2006,08,07,12,49,18.30
2006,08,07,12,50,18.40
2006,08,07,12,51,18.50
2006,08,07,12,52,18.50
2006,08,07,12,53,18.40
2006,08,07,12,54,18.30
2006,08,07,12,55,18.30
2006,08,07,12,56,18.30
2006,08,07,12,57,18.30
2006,08,07,12,58,18.20
2006,08,07,12,59,18.30
2006,08,07,13,00,18.30
2006,08,07,13,01,18.30
2006,08,07,13,02,18.40
2006,08,07,13,03,18.50
2006,08,07,13,04,18.50
2006,08,07,13,05,18.60
2006,08,07,13,06,18.60
2006,08,07,13,07,18.70
2006,08,07,13,08,18.80
2006,08,07,13,09,18.80
2006,08,07,13,10,18.80
2006,08,07,13,11,18.90
2006,08,07,13,12,19.00
2006,08,07,13,13,19.10
2006,08,07,13,14,19.10
2006,08,07,13,15,19.20
2006,08,07,13,16,19.30
2006,08,07,13,17,19.50
2006,08,07,13,18,19.60
2006,08,07,13,19,19.70
2006,08,07,13,20,19.70
2006,08,07,13,21,19.80
2006,08,07,13,22,19.90
2006,08,07,13,23,19.80
2006,08,07,13,24,19.70
2006,08,07,13,25,19.70
2006,08,07,13,26,19.60
2006,08,07,13,27,19.60
2006,08,07,13,28,19.60
2006,08,07,13,29,19.70
2006,08,07,13,30,19.80
2006,08,07,13,31,19.80
2006,08,07,13,32,19.70
2006,08,07,13,33,19.60
2006,08,07,13,34,19.50
2006,08,07,13,35,19.50
2006,08,07,13,36,19.50
2006,08,07,13,37,19.60
2006,08,07,13,38,19.60
2006,08,07,13,39,19.60
2006,08,07,13,40,19.60
2006,08,07,13,41,19.60
2006,08,07,13,42,19.60
2006,08,07,13,43,19.70
2006,08,07,13,44,19.80
2006,08,07,13,45,19.90
2006,08,07,13,46,19.90
2006,08,07,13,47,19.90
2006,08,07,13,48,19.90
2006,08,07,13,49,19.90
2006,08,07,13,50,19.90
2006,08,07,13,51,19.90
2006,08,07,13,52,19.90
2006,08,07,13,53,19.80
2006,08,07,13,54,19.80
2006,08,07,13,55,19.70
2006,08,07,13,56,19.70
2006,08,07,13,57,19.70
2006,08,07,13,58,19.50
2006,08,07,13,59,19.50
2006,08,07,14,00,19.40
2006,08,07,14,01,19.40
2006,08,07,14,02,19.60
2006,08,07,14,03,19.70
2006,08,07,14,04,19.70
2006,08,07,14,05,19.70
2006,08,07,14,06,19.80
2006,08,07,14,07,19.60
2006,08,07,14,08,19.60
2006,08,07,14,09,19.70
2006,08,07,14,10,19.60
2006,08,07,14,11,19.70
2006,08,07,14,12,19.80
2006,08,07,14,13,20.00
2006,08,07,14,14,20.20
2006,08,07,14,15,20.30
2006,08,07,14,16,20.50
2006,08,07,14,17,20.60
2006,08,07,14,18,20.60
2006,08,07,14,19,20.60
2006,08,07,14,20,20.50
2006,08,07,14,21,20.30
2006,08,07,14,22,20.20
2006,08,07,14,23,20.10
2006,08,07,14,24,20.10
2006,08,07,14,25,20.20
2006,08,07,14,26,20.20
2006,08,07,14,27,20.20
2006,08,07,14,28,20.20
2006,08,07,14,29,20.20
2006,08,07,14,30,20.20
2006,08,07,14,31,20.20
2006,08,07,14,32,20.20
2006,08,07,14,33,20.30
2006,08,07,14,34,20.40
2006,08,07,14,35,20.50
2006,08,07,14,36,20.50
2006,08,07,14,37,20.70
2006,08,07,14,38,20.70
2006,08,07,14,39,20.80
2006,08,07,14,40,20.80
2006,08,07,14,41,20.90
2006,08,07,14,42,21.00
2006,08,07,14,43,21.20
2006,08,07,14,44,21.40
2006,08,07,14,45,21.60
2006,08,07,14,46,21.50
2006,08,07,14,47,21.30
2006,08,07,14,48,21.20
2006,08,07,14,49,21.20
2006,08,07,14,50,21.30
2006,08,07,14,51,21.40
2006,08,07,14,52,21.60
2006,08,07,14,53,21.80
2006,08,07,14,54,22.00
2006,08,07,14,55,22.20
2006,08,07,14,56,22.40
2006,08,07,14,57,22.40
2006,08,07,14,58,22.50
2006,08,07,14,59,22.60
2006,08,07,15,00,22.80
2006,08,07,15,01,22.90
2006,08,07,15,02,22.90
2006,08,07,15,03,23.10
2006,08,07,15,04,23.30
2006,08,07,15,05,23.40
2006,08,07,15,06,23.60
2006,08,07,15,07,23.70
2006,08,07,15,08,24.00
2006,08,07,15,09,24.10
2006,08,07,15,10,24.40
2006,08,07,15,11,24.50
2006,08,07,15,12,24.60
2006,08,07,15,13,24.80
2006,08,07,15,14,24.90
2006,08,07,15,15,25.20
2006,08,07,15,16,25.30
2006,08,07,15,17,25.30
2006,08,07,15,18,25.30
2006,08,07,15,19,25.30
2006,08,07,15,20,25.40
2006,08,07,15,21,25.50
2006,08,07,15,22,25.60
2006,08,07,15,23,25.60
2006,08,07,15,24,25.70
2006,08,07,15,25,25.80
2006,08,07,15,26,25.90
2006,08,07,15,27,26.00
2006,08,07,15,28,26.00
2006,08,07,15,29,26.00
2006,08,07,15,30,25.90
2006,08,07,15,31,25.90
2006,08,07,15,32,26.10
2006,08,07,15,33,26.20
2006,08,07,15,34,26.20
2006,08,07,15,35,26.20
2006,08,07,15,36,26.20
2006,08,07,15,37,26.30
2006,08,07,15,38,26.40
2006,08,07,15,39,26.50
2006,08,07,15,40,26.60
2006,08,07,15,41,26.60
2006,08,07,15,42,26.60
2006,08,07,15,43,26.60
2006,08,07,15,44,26.60
2006,08,07,15,45,26.70
2006,08,07,15,46,26.70
2006,08,07,15,47,26.80
2006,08,07,15,48,26.80
2006,08,07,15,49,26.80
2006,08,07,15,50,26.70
2006,08,07,15,51,26.60
2006,08,07,15,52,26.60
2006,08,07,15,53,26.60
2006,08,07,15,54,26.60
2006,08,07,15,55,26.70
2006,08,07,15,56,26.80
2006,08,07,15,57,26.70
2006,08,07,15,58,26.70
2006,08,07,15,59,26.70
2006,08,07,16,00,26.60
2006,08,07,16,01,26.60
2006,08,07,16,02,26.50
2006,08,07,16,03,26.40
2006,08,07,16,04,26.40
2006,08,07,16,05,26.50
2006,08,07,16,06,26.60
2006,08,07,16,07,26.80
2006,08,07,16,08,26.90
2006,08,07,16,09,27.00
2006,08,07,16,10,27.10
2006,08,07,16,11,27.10
2006,08,07,16,12,27.10
2006,08,07,16,13,27.10
2006,08,07,16,14,27.10
2006,08,07,16,15,27.10
2006,08,07,16,16,27.10
2006,08,07,16,17,27.10
2006,08,07,16,18,27.10
2006,08,07,16,19,27.10
2006,08,07,16,20,27.00
2006,08,07,16,21,26.90
2006,08,07,16,22,26.90
2006,08,07,16,23,27.10
2006,08,07,16,24,27.20
2006,08,07,16,25,27.30
2006,08,07,16,26,27.30
2006,08,07,16,27,27.30
2006,08,07,16,28,27.40
2006,08,07,16,29,27.60
2006,08,07,16,30,27.60
2006,08,07,16,31,27.60
2006,08,07,16,32,27.60
2006,08,07,16,33,27.60
2006,08,07,16,34,27.60
2006,08,07,16,35,27.60
2006,08,07,16,36,27.60
2006,08,07,16,37,27.60
2006,08,07,16,38,27.60
2006,08,07,16,39,27.60
2006,08,07,16,40,27.60
2006,08,07,16,41,27.60
2006,08,07,16,42,27.60
2006,08,07,16,43,27.70
2006,08,07,16,44,27.80
2006,08,07,16,45,27.90
2006,08,07,16,46,27.90
2006,08,07,16,47,27.90
2006,08,07,16,48,27.90
2006,08,07,16,49,27.90
2006,08,07,16,50,27.90
2006,08,07,16,51,27.80
2006,08,07,16,52,27.70
2006,08,07,16,53,27.60
2006,08,07,16,54,27.50
2006,08,07,16,55,27.40
2006,08,07,16,56,27.30
2006,08,07,16,57,27.20
2006,08,07,16,58,27.10
2006,08,07,16,59,27.00
2006,08,07,17,00,26.90
2006,08,07,17,01,26.80
2006,08,07,17,02,26.70
2006,08,07,17,03,26.70
2006,08,07,17,04,26.70
2006,08,07,17,05,26.70
2006,08,07,17,06,26.70
2006,08,07,17,07,26.60
2006,08,07,17,08,26.60
2006,08,07,17,09,26.50
2006,08,07,17,10,26.40
2006,08,07,17,11,26.20
2006,08,07,17,12,26.10
2006,08,07,17,13,26.00
2006,08,07,17,14,25.90
2006,08,07,17,15,25.90
2006,08,07,17,16,25.80
2006,08,07,17,17,25.90
2006,08,07,17,18,25.90
2006,08,07,17,19,25.80